T7FAB VIDP-VAAH

Flight info

Callsign T7FAB
Flight time N/A
Altitude 38000
Route DUDUM6C DUDUM A474 NIKOT Q5 UUD UUD1A
Aircraft F2TH/M-SDE2E3FGHIJ1J3J4J5RWXYZ/LB1

Departure

Time 2026-04-27 05:52
Airport Indira Gandhi International Airport (VIDP)

Arrival

Time N/A
Airport Sardar Vallabh Patel International Airport (VAAH)
Time Latitude Longitude Altitude Speed Heading
2026-04-27 05:04 28.54914 77.09607 784 ft 0 kts 281°
2026-04-27 05:39 28.54911 77.09620 784 ft 7 kts 281°
2026-04-27 05:39 28.54909 77.09633 784 ft 7 kts 280°
2026-04-27 05:40 28.54910 77.09646 784 ft 7 kts 250°
2026-04-27 05:40 28.54917 77.09656 784 ft 7 kts 209°
2026-04-27 05:40 28.54919 77.09657 784 ft 7 kts 192°
2026-04-27 05:40 28.54909 77.09654 784 ft 0 kts 192°
2026-04-27 05:45 28.54900 77.09652 784 ft 2 kts 195°
2026-04-27 05:45 28.54877 77.09644 784 ft 4 kts 195°
2026-04-27 05:46 28.54840 77.09633 784 ft 7 kts 195°
2026-04-27 05:46 28.54790 77.09618 784 ft 7 kts 195°
2026-04-27 05:46 28.54754 77.09607 784 ft 3 kts 193°
2026-04-27 05:46 28.54749 77.09606 784 ft 0 kts 193°
2026-04-27 05:47 28.54748 77.09606 784 ft 2 kts 193°
2026-04-27 05:47 28.54736 77.09603 784 ft 1 kts 193°
2026-04-27 05:47 28.54704 77.09607 784 ft 6 kts 133°
2026-04-27 05:48 28.54685 77.09684 784 ft 9 kts 103°
2026-04-27 05:48 28.54673 77.09740 784 ft 6 kts 104°
2026-04-27 05:48 28.54657 77.09787 784 ft 6 kts 128°
2026-04-27 05:48 28.54629 77.09807 784 ft 2 kts 167°
2026-04-27 05:49 28.54604 77.09804 784 ft 5 kts 199°
2026-04-27 05:49 28.54570 77.09793 784 ft 8 kts 194°
2026-04-27 05:49 28.54517 77.09780 784 ft 10 kts 192°
2026-04-27 05:49 28.54454 77.09765 784 ft 7 kts 192°
2026-04-27 05:50 28.54396 77.09730 784 ft 5 kts 233°
2026-04-27 05:50 28.54394 77.09712 784 ft 1 kts 282°
2026-04-27 05:50 28.54395 77.09709 784 ft 0 kts 284°
2026-04-27 05:51 28.54404 77.09668 784 ft 20 kts 284°
2026-04-27 05:51 28.54503 77.09218 784 ft 98 kts 284°
2026-04-27 05:51 28.54723 77.08219 814 ft 161 kts 284°
2026-04-27 05:52 28.55015 77.06847 1531 ft 201 kts 284°
2026-04-27 05:52 28.55207 77.05153 2080 ft 256 kts 275°
2026-04-27 05:52 28.54932 77.02743 2739 ft 310 kts 259°
2026-04-27 05:52 28.54102 77.00564 3300 ft 287 kts 243°
2026-04-27 05:53 28.52831 76.98876 3874 ft 278 kts 227°
2026-04-27 05:53 28.51255 76.97702 4443 ft 273 kts 212°
2026-04-27 05:53 28.49414 76.96967 5054 ft 286 kts 199°
2026-04-27 05:53 28.47442 76.96565 5662 ft 287 kts 193°
2026-04-27 05:54 28.45496 76.96148 6231 ft 288 kts 194°
2026-04-27 05:54 28.43461 76.95680 6777 ft 292 kts 195°
2026-04-27 05:54 28.41474 76.95227 7144 ft 295 kts 195°
2026-04-27 05:54 28.39465 76.94785 7514 ft 295 kts 194°
2026-04-27 05:55 28.37522 76.94365 7650 ft 300 kts 194°
2026-04-27 05:55 28.35425 76.93918 7908 ft 297 kts 194°
2026-04-27 05:55 28.33443 76.93501 8150 ft 300 kts 194°